KC3JUG-13 Weather Reports


time (UTC)temp
C
wind
direction
speed
KPH
gust
KPH
rain 1hr
cm
rain 24hr
cm
rain mn
cm
humidity
%
barometer
mb
20260510070028 10 153 0.0 0.0 0.00 0.18 0.00 96 1012.8
20260510064728 10 153 0.0 0.0 0.00 0.18 0.00 96 1012.7
20260510063428 10 153 0.0 0.0 0.00 0.18 0.00 96 1012.8
20260510062128 11 153 0.0 0.0 0.00 0.18 0.00 96 1012.8
20260510060829 11 153 0.0 0.0 0.00 0.18 0.00 96 1012.3
20260510055529 11 153 0.0 0.0 0.00 0.18 0.00 96 1012.1
20260510054229 11 153 0.0 0.0 0.00 0.18 0.00 96 1012.2
20260510052929 11 153 0.0 0.0 0.00 0.18 0.00 96 1012.2
20260510051629 11 153 0.0 0.0 0.00 0.18 0.00 96 1012.5
20260510050329 11 150 0.0 0.0 0.00 0.18 0.00 96 1012.4
20260510045029 11 150 0.0 0.0 0.00 0.18 0.00 96 1012.6
20260510043729 11 149 0.0 0.0 0.00 0.18 0.00 96 1012.6
20260510042429 11 143 0.0 0.0 0.00 0.18 0.00 96 1012.8
20260510041129 11 142 0.0 0.0 0.00 0.18 0.00 96 1012.7
20260510040030 11 142 0.0 0.0 0.00 0.18 0.18 96 1012.9
20260510035902 11 142 0.0 0.0 0.00 0.18 0.18 96 1012.9
20260510035829 11 142 0.0 0.0 0.00 0.18 0.18 96 1012.9
20260510034529 11 142 0.0 0.0 0.00 0.18 0.18 96 1012.8
20260510033229 11 142 0.0 0.0 0.00 0.18 0.18 96 1012.9
20260510031929 11 142 0.0 0.0 0.00 0.18 0.18 96 1012.8
20260510030629 11 142 0.0 0.0 0.00 0.18 0.18 96 1012.8
20260510025329 11 142 0.0 0.0 0.00 0.18 0.18 96 1012.6
20260510024029 11 137 0.0 0.0 0.00 0.18 0.18 96 1012.4
20260510022729 11 137 0.0 0.0 0.00 0.18 0.18 96 1012.5
20260510021429 11 136 0.0 0.0 0.00 0.18 0.18 96 1012.6
20260510020129 11 136 0.0 0.0 0.00 0.18 0.18 96 1012.3
20260510014829 11 136 0.0 0.0 0.00 0.18 0.18 96 1012.2
20260510013529 11 125 0.0 0.0 0.00 0.18 0.18 96 1012.1
20260510012229 12 119 0.0 0.0 0.00 0.18 0.18 96 1012.0
20260510010929 12 119 0.0 0.0 0.00 0.18 0.18 95 1012.0
20260510005629 12 119 0.0 0.0 0.00 0.18 0.18 95 1011.9
20260510004329 12 115 0.0 0.0 0.00 0.18 0.18 95 1011.8
20260510003029 12 115 0.0 0.0 0.00 0.18 0.18 93 1011.6
20260510001729 12 93 0.0 0.0 0.00 0.18 0.18 93 1011.6
20260510000429 13 69 0.0 0.0 0.00 0.18 0.18 91 1011.6
20260509235129 13 69 0.0 0.0 0.00 0.18 0.18 90 1011.5
20260509233829 13 69 0.0 0.0 0.00 0.18 0.18 90 1011.4
20260509232529 13 350 0.0 0.0 0.00 0.18 0.18 90 1011.5
20260509231229 13 350 0.0 0.0 0.00 0.18 0.18 90 1011.5
20260509225929 13 350 0.0 0.0 0.00 0.18 0.18 90 1011.5
20260509224629 14 350 0.0 0.0 0.00 0.18 0.18 90 1011.5
20260509223329 14 350 0.0 0.0 0.00 0.18 0.18 87 1011.6
20260509222029 14 350 0.0 0.0 0.00 0.18 0.18 84 1011.6
20260509220729 13 350 0.0 0.0 0.00 0.18 0.18 86 1011.6
20260509215429 13 350 0.0 0.0 0.00 0.18 0.18 87 1011.7
20260509214129 13 350 0.0 0.0 0.00 0.18 0.18 89 1011.8
20260509212829 13 350 0.0 0.0 0.00 0.18 0.18 91 1011.6
20260509211529 13 350 0.0 0.0 0.00 0.18 0.18 91 1011.6
20260509210230 13 350 0.0 0.0 0.00 0.18 0.18 89 1011.8
20260509204929 13 350 0.0 0.0 0.00 0.18 0.18 87 1011.8
20260509203630 13 350 0.0 0.0 0.00 0.18 0.18 86 1011.9
20260509202329 13 341 0.0 0.0 0.00 0.18 0.18 86 1011.9
20260509201029 13 0 0.0 0.0 0.00 0.18 0.18 87 1012.0
20260509195729 13 0 0.0 0.0 0.00 0.18 0.18 90 1012.1
20260509194429 13 115 0.0 0.0 0.00 0.18 0.18 91 1012.0
20260509193129 12 115 0.0 0.0 0.00 0.18 0.18 91 1012.3
20260509191829 12 112 0.0 0.0 0.00 0.18 0.18 92 1012.3
20260509190529 12 249 0.0 0.0 0.00 0.18 0.18 92 1012.5
20260509185230 12 249 0.0 0.0 0.00 0.18 0.18 91 1012.8
20260509183929 12 249 0.0 0.0 0.03 0.18 0.18 91 1013.0
20260509182630 12 249 0.0 0.0 0.03 0.18 0.18 91 1013.3
20260509181330 12 249 0.0 0.0 0.03 0.18 0.18 91 1013.5
20260509180030 12 249 0.0 0.0 0.03 0.18 0.18 91 1013.6
20260509174730 12 249 0.0 0.0 0.03 0.18 0.18 90 1013.6
20260509173430 12 249 0.0 0.0 0.00 0.15 0.15 90 1013.5
20260509172130 12 249 0.0 0.0 0.00 0.15 0.15 90 1013.9
20260509170830 12 249 0.0 0.0 0.00 0.15 0.15 91 1013.7
20260509165530 12 249 0.0 0.0 0.03 0.15 0.15 91 1013.9
20260509164230 12 249 0.0 0.0 0.08 0.15 0.15 92 1013.8
20260509162930 12 249 0.0 0.0 0.13 0.15 0.15 92 1013.1
20260509161630 12 249 0.0 0.0 0.15 0.15 0.15 92 1012.7
20260509160330 12 249 0.0 0.0 0.15 0.15 0.15 92 1013.5
20260509155030 12 249 0.0 0.0 0.10 0.10 0.10 91 1013.9
20260509153730 12 248 0.0 0.0 0.05 0.05 0.05 90 1014.1
20260509152430 12 248 0.0 0.0 0.00 0.00 0.00 89 1014.4
20260509151130 13 245 0.0 0.0 0.00 0.00 0.00 88 1014.3
20260509145830 13 256 0.0 0.0 0.00 0.00 0.00 87 1014.3
20260509144530 13 246 0.0 0.0 0.00 0.00 0.00 86 1014.1
20260509143230 13 245 0.0 0.0 0.00 0.00 0.00 85 1013.9
20260509141930 13 240 0.0 0.0 0.00 0.00 0.00 85 1013.7
20260509140630 13 241 0.0 0.0 0.00 0.00 0.00 83 1013.7
20260509135330 13 196 0.0 0.0 0.00 0.00 0.00 83 1013.6
20260509134030 13 196 0.0 0.0 0.00 0.00 0.00 82 1013.2
20260509132730 13 196 0.0 0.0 0.00 0.00 0.00 82 1013.3
20260509131430 13 194 3.2 6.4 0.00 0.00 0.00 82 1013.2
20260509130130 13 267 1.6 4.8 0.00 0.00 0.00 83 1013.5
20260509124830 12 250 3.2 11.3 0.00 0.00 0.00 83 1013.4
20260509123530 12 193 1.6 4.8 0.00 0.00 0.00 84 1013.1
20260509122230 12 159 3.2 6.4 0.00 0.00 0.00 84 1013.2
20260509120930 12 159 0.0 0.0 0.00 0.00 0.00 84 1013.4
20260509115630 12 159 0.0 0.0 0.00 0.00 0.00 84 1013.3
20260509114512 12 159 3.2 6.4 0.00 0.00 0.00 83 1013.1
20260509114330 12 159 3.2 6.4 0.00 0.00 0.00 83 1013.1
20260509113030 12 157 3.2 8.0 0.00 0.00 0.00 84 1013.0
20260509111730 11 186 1.6 3.2 0.00 0.00 0.00 83 1013.2
20260509110430 11 180 3.2 4.8 0.00 0.00 0.00 83 1013.1
20260509105130 11 180 3.2 4.8 0.00 0.00 0.00 84 1013.0
20260509103830 11 226 1.6 4.8 0.00 0.00 0.00 85 1012.7
20260509102530 10 226 0.0 1.6 0.00 0.00 0.00 89 1012.7
20260509101230 10 226 1.6 1.6 0.00 0.00 0.00 88 1012.9
20260509095930 10 226 0.0 1.6 0.00 0.00 0.00 88 1012.9
20260509094630 11 226 0.0 1.6 0.00 0.00 0.00 87 1012.9
20260509093330 11 226 0.0 1.6 0.00 0.00 0.00 86 1012.9
20260509092030 11 226 0.0 3.2 0.00 0.00 0.00 86 1013.0
20260509090730 11 226 0.0 1.6 0.00 0.00 0.00 85 1013.0
20260509085430 11 226 0.0 0.0 0.00 0.00 0.00 84 1013.0
20260509084130 11 226 0.0 0.0 0.00 0.00 0.00 83 1013.1
20260509082830 11 226 1.6 1.6 0.00 0.00 0.00 82 1013.3
20260509081530 12 226 0.0 3.2 0.00 0.00 0.00 82 1013.4
20260509080230 11 225 1.6 4.8 0.00 0.00 0.00 82 1013.2
20260509074930 12 265 1.6 3.2 0.00 0.00 0.00 82 1013.6
20260509073630 12 236 1.6 4.8 0.00 0.00 0.00 80 1013.6
20260509072331 12 147 1.6 3.2 0.00 0.00 0.00 80 1013.7
20260509071030 12 147 1.6 3.2 0.00 0.00 0.00 79 1013.7